Погода в Арба-Мынч

Эфиопия     6°01′27″N   37°32′57″E
темп.,
°C
ветер,
м/с
пор.,
м/с
влажн.,
%
обл.,
%
осадки,
мм/ч
давл.,
гПа
погр.,
м
18 апреля, вс
вс1800:00+18ссз2283100 1.3 101632
03:00+16сз228693 2.6 101424
06:00+17сз118392 0.7 101613
09:00+21вюв116878 1.1 1016388
12:00+26юв334439 0.8 10141717
15:00+26вюв4445100 1.8 10101292
18:00+21ссз127386 2.1 101382
21:00+18ссз228238 3.4 101632
19 апреля, пн
пн1900:00+17зсз2289100 3.6 101637
03:00+17ссз2291100 7.8 101544
06:00+17всв0190100 2.0 101619
09:00+17св0191100 3.9 1018127
12:00+19с137999 1.3 1017355
15:00+22в235753 1.6 1013929
18:00+21всв126893 0.0 1013201
21:00+19сз216999 0.0 101520
20 апреля, вт
вт2000:00+17сз226868 0.0 101526
03:00+16сз2266100 0.0 101421
06:00+16сз226996 0.0 101519
09:00+22в236190 0.0 1016684
12:00+26вюв344780 0.6 10131581
15:00+28ююв2434100 1.9 10082060
18:00+24юв114886 0.1 100945
21:00+20зсз2264100 0.1 101224
21 апреля, ср
ср2100:00+19сз2270100 0.0 101316
03:00+18з1175100 0.1 101317
06:00+17зсз117773 0.1 101411
09:00+21юв116592 0.1 1015514
12:00+27юв3444100 0.5 10121896
15:00+23з3359100 1.8 1010379
18:00+23ююз1258100 0.3 100956
21:00+19зсз228051 2.1 101229
22 апреля, чт
чт2200:00+18зюз118532 0.4 101317
03:00+17з118846 0.6 101315
06:00+16сз228863 0.3 101419
09:00+21ююв127697 2.4 1016387
12:00+25ююв325625 2.4 10141330
15:00+27ю3442100 3.9 10092146
18:00+23ю366099 0.9 1010364
21:00+18зсз2284100 3.1 101330